СОФИЯ - Вътрешен Measurements

Back to Overview

Timestamp Temperature Humidity
1/23/2021 7:27:10 PM 19,9 C 36.0%
1/23/2021 7:20:09 PM 19,9 C 36.0%
1/23/2021 7:13:06 PM 19,9 C 36.0%
1/23/2021 7:06:02 PM 19,9 C 36.0%
1/23/2021 6:59:00 PM 19,9 C 36.0%
1/23/2021 6:51:58 PM 19,9 C 36.0%
1/23/2021 6:44:54 PM 19,9 C 36.0%
1/23/2021 6:37:53 PM 20,0 C 36.0%
1/23/2021 6:30:51 PM 19,9 C 36.0%
1/23/2021 6:23:47 PM 19,9 C 36.0%
1/23/2021 6:16:44 PM 19,9 C 36.0%
1/23/2021 6:09:42 PM 20,0 C 36.0%
1/23/2021 6:02:40 PM 19,9 C 36.0%
1/23/2021 5:55:37 PM 19,9 C 36.0%
1/23/2021 5:48:36 PM 19,9 C 36.0%
1/23/2021 5:41:33 PM 19,9 C 36.0%
1/23/2021 5:34:30 PM 19,9 C 36.0%
1/23/2021 5:27:27 PM 19,9 C 36.0%
1/23/2021 5:20:25 PM 19,9 C 36.0%
1/23/2021 5:13:22 PM 19,9 C 36.0%
1/23/2021 5:06:19 PM 19,9 C 36.0%
1/23/2021 4:59:18 PM 19,9 C 36.0%
1/23/2021 4:52:14 PM 19,9 C 36.0%
1/23/2021 4:45:13 PM 19,9 C 36.0%
1/23/2021 4:38:11 PM 19,9 C 36.0%
1/23/2021 4:31:07 PM 19,9 C 36.0%
1/23/2021 4:24:04 PM 19,9 C 36.0%
1/23/2021 4:17:03 PM 19,9 C 36.0%
1/23/2021 4:10:00 PM 19,9 C 36.0%
1/23/2021 4:02:56 PM 19,9 C 36.0%
1/23/2021 3:55:55 PM 19,9 C 36.0%
1/23/2021 3:48:51 PM 19,7 C 36.0%
1/23/2021 3:41:49 PM 19,8 C 36.0%
1/23/2021 3:34:46 PM 19,8 C 36.0%
1/23/2021 3:27:42 PM 19,8 C 36.0%
1/23/2021 3:20:40 PM 19,8 C 36.0%
1/23/2021 3:13:39 PM 19,8 C 36.0%
1/23/2021 3:06:35 PM 19,8 C 36.0%
1/23/2021 2:59:31 PM 19,7 C 36.0%
1/23/2021 2:52:28 PM 19,6 C 36.0%
1/23/2021 2:45:26 PM 19,6 C 36.0%
1/23/2021 2:38:23 PM 19,4 C 36.0%
1/23/2021 2:31:22 PM 19,3 C 36.0%
1/23/2021 2:24:19 PM 19,4 C 36.0%
1/23/2021 2:17:18 PM 19,2 C 36.0%
1/23/2021 2:10:17 PM 19,3 C 36.0%
1/23/2021 2:03:13 PM 19,5 C 36.0%
1/23/2021 1:56:11 PM 19,4 C 36.0%
1/23/2021 1:49:08 PM 19,2 C 36.0%
1/23/2021 1:42:04 PM 19,3 C 36.0%
1/23/2021 1:35:02 PM 19,5 C 36.0%
1/23/2021 1:28:00 PM 19,3 C 36.0%
1/23/2021 1:20:57 PM 19,4 C 36.0%
1/23/2021 1:13:55 PM 19,2 C 36.0%
1/23/2021 1:06:51 PM 19,4 C 36.0%
1/23/2021 12:59:47 PM 19,5 C 36.0%
1/23/2021 12:52:45 PM 19,3 C 36.0%
1/23/2021 12:45:44 PM 19,4 C 36.0%
1/23/2021 12:38:40 PM 19,6 C 36.0%
1/23/2021 12:31:38 PM 19,5 C 36.0%
1/23/2021 12:24:35 PM 19,7 C 35.0%
1/23/2021 12:17:34 PM 19,6 C 35.0%
1/23/2021 12:10:32 PM 19,5 C 36.0%
1/23/2021 12:03:30 PM 19,6 C 36.0%
1/23/2021 11:56:29 AM 19,4 C 35.0%
1/23/2021 11:49:26 AM 19,6 C 35.0%
1/23/2021 11:42:23 AM 19,6 C 35.0%
1/23/2021 11:35:21 AM 19,7 C 35.0%
1/23/2021 11:28:19 AM 19,6 C 35.0%
1/23/2021 11:21:18 AM 19,9 C 35.0%
1/23/2021 11:14:16 AM 20,1 C 35.0%
1/23/2021 11:07:14 AM 20,2 C 34.0%
1/23/2021 11:00:12 AM 20,0 C 35.0%
1/23/2021 10:53:09 AM 20,0 C 35.0%
1/23/2021 10:46:04 AM 20,0 C 35.0%
1/23/2021 10:39:03 AM 20,0 C 35.0%
1/23/2021 10:32:01 AM 20,0 C 35.0%
1/23/2021 10:24:58 AM 20,0 C 34.0%
1/23/2021 10:17:55 AM 20,1 C 34.0%
1/23/2021 10:10:53 AM 20,1 C 34.0%
1/23/2021 10:03:51 AM 20,0 C 34.0%
1/23/2021 9:56:49 AM 19,9 C 34.0%
1/23/2021 9:49:47 AM 19,9 C 34.0%
1/23/2021 9:42:44 AM 20,0 C 34.0%
1/23/2021 9:35:41 AM 20,1 C 34.0%
1/23/2021 9:28:38 AM 20,3 C 34.0%
1/23/2021 9:21:37 AM 20,1 C 34.0%
1/23/2021 9:14:33 AM 20,1 C 34.0%
1/23/2021 9:07:32 AM 20,2 C 34.0%
1/23/2021 9:00:29 AM 20,2 C 34.0%
1/23/2021 8:53:25 AM 20,2 C 34.0%
1/23/2021 8:46:23 AM 20,1 C 34.0%
1/23/2021 8:39:19 AM 20,1 C 34.0%
1/23/2021 8:32:17 AM 20,1 C 34.0%
1/23/2021 8:25:16 AM 20,2 C 34.0%
1/23/2021 8:18:12 AM 20,2 C 34.0%
1/23/2021 8:11:09 AM 20,2 C 34.0%
1/23/2021 8:04:05 AM 20,1 C 34.0%
1/23/2021 7:57:04 AM 20,1 C 34.0%
1/23/2021 7:50:01 AM 20,1 C 34.0%
1/23/2021 7:42:57 AM 20,2 C 34.0%
1/23/2021 7:35:55 AM 20,2 C 34.0%
1/23/2021 7:28:51 AM 20,2 C 34.0%
1/23/2021 7:21:50 AM 20,2 C 34.0%
1/23/2021 7:14:48 AM 20,0 C 34.0%
1/23/2021 7:07:45 AM 19,9 C 34.0%
1/23/2021 7:00:42 AM 20,0 C 34.0%
1/23/2021 6:53:38 AM 20,1 C 34.0%
1/23/2021 6:46:35 AM 20,2 C 34.0%
1/23/2021 6:39:32 AM 20,2 C 34.0%
1/23/2021 6:32:31 AM 20,0 C 34.0%
1/23/2021 6:25:28 AM 20,0 C 34.0%
1/23/2021 6:18:26 AM 20,1 C 34.0%
1/23/2021 6:11:22 AM 20,1 C 34.0%
1/23/2021 6:04:20 AM 20,1 C 34.0%
1/23/2021 5:57:18 AM 20,1 C 34.0%
1/23/2021 5:50:18 AM 20,1 C 34.0%
1/23/2021 5:43:15 AM 20,0 C 34.0%
1/23/2021 5:36:14 AM 20,1 C 34.0%
1/23/2021 5:29:11 AM 20,1 C 34.0%
1/23/2021 5:22:08 AM 20,2 C 34.0%
1/23/2021 5:15:07 AM 20,2 C 34.0%
1/23/2021 5:08:04 AM 20,2 C 34.0%
1/23/2021 5:01:03 AM 19,9 C 34.0%
1/23/2021 4:54:00 AM 19,9 C 34.0%
1/23/2021 4:46:59 AM 20,1 C 34.0%
1/23/2021 4:39:57 AM 20,2 C 34.0%
1/23/2021 4:32:54 AM 20,2 C 34.0%
1/23/2021 4:25:53 AM 20,1 C 34.0%
1/23/2021 4:18:49 AM 20,1 C 34.0%
1/23/2021 4:11:47 AM 20,0 C 34.0%
1/23/2021 4:04:46 AM 20,1 C 34.0%
1/23/2021 3:57:44 AM 20,1 C 34.0%
1/23/2021 3:50:41 AM 20,1 C 34.0%
1/23/2021 3:43:39 AM 20,1 C 34.0%
1/23/2021 3:36:37 AM 20,0 C 34.0%
1/23/2021 3:29:37 AM 20,0 C 34.0%
1/23/2021 3:22:34 AM 20,1 C 34.0%
1/23/2021 3:15:34 AM 20,1 C 34.0%
1/23/2021 3:08:30 AM 20,1 C 34.0%
1/23/2021 3:01:27 AM 20,0 C 34.0%
1/23/2021 2:54:24 AM 19,9 C 34.0%
1/23/2021 2:47:22 AM 19,9 C 34.0%
1/23/2021 2:40:19 AM 19,9 C 34.0%
1/23/2021 2:33:16 AM 20,0 C 34.0%
1/23/2021 2:26:13 AM 20,1 C 34.0%
1/23/2021 2:19:11 AM 20,0 C 34.0%
1/23/2021 2:12:07 AM 20,0 C 34.0%
1/23/2021 2:05:04 AM 19,9 C 34.0%
1/23/2021 1:58:02 AM 19,9 C 34.0%
1/23/2021 1:50:59 AM 19,9 C 34.0%
1/23/2021 1:43:57 AM 19,9 C 34.0%
1/23/2021 1:36:55 AM 20,0 C 34.0%
1/23/2021 1:29:53 AM 19,9 C 34.0%
1/23/2021 1:22:50 AM 19,9 C 34.0%
1/23/2021 1:15:48 AM 19,9 C 34.0%
1/23/2021 1:08:44 AM 19,9 C 34.0%
1/23/2021 1:01:42 AM 19,9 C 34.0%
1/23/2021 12:54:40 AM 19,8 C 34.0%
1/23/2021 12:47:37 AM 19,8 C 34.0%
1/23/2021 12:40:36 AM 19,7 C 34.0%
1/23/2021 12:33:34 AM 19,8 C 34.0%
1/23/2021 12:26:32 AM 19,8 C 34.0%
1/23/2021 12:19:29 AM 19,8 C 34.0%
1/23/2021 12:12:27 AM 19,9 C 34.0%
1/23/2021 12:05:25 AM 19,9 C 34.0%